Location: Kuffner-Sternwarte
(48.2130°N, 16.2960°E)
Time: 05:03:05
(UTC+02:00)

ACS3 Solar Sail - Pass Details

Date: 27 September 2024
Orbit: 963 x 1036 km, 97.4° (Epoch: 04 October)

Event Time Altitude Azimuth Distance (km) Brightness Sun altitude
Exits shadow 21:12:26 25° 181° (S) 1,947 3.1 -25.1°
Maximum altitude 21:16:22 69° 260° (W) 1,103 2.1 -25.7°
Drops below altitude 10° 21:22:46 10° 343° (NNW) 2,830 4.8 -26.7°
Sets 21:25:17 0° 346° (NNW) 3,777 5.5 -27.0°
